Regional Weather Roundup
Issued by NWS

Home | Current Version | Previous Version | Text Only | Print | Product List | Glossary On
Versions: 1 2 3 4 5 6 7 8 9 10 11 12 13 14 15 16 17 18 19 20 21 22 23 24 25 26 27 28 29 30 31 32 33 34 35 36 37 38 39 40 41 42 43 44 45 46 47 48 49 50
000
ASUS45 KBOI 250310
RWRID

IDAHO REGIONAL WEATHER ROUNDUP
NATIONAL WEATHER SERVICE BOISE ID
900 PM MDT FRI MAY 24 2019

NOTE: "FAIR" INDICATES FEW OR NO CLOUDS BELOW 12000 FEET
WITH NO SIGNIFICANT WEATHER AND/OR OBSTRUCTIONS TO VISIBILITY

IDZ012-014-250400-
SOUTHWEST IDAHO


CITY           SKY/WX    TMP DP  RH WIND       PRES   REMARKS
BOISE          LGT RAIN  52  47  83 SW6       29.87S
CALDWELL       LGT RAIN  53  48  83 E9        29.85S
MOUNTAIN HOME  CLOUDY    49  49 100 SW3       29.88R
$$

IDZ016-017-250400-
SOUTHCENTRAL IDAHO


CITY           SKY/WX    TMP DP  RH WIND       PRES   REMARKS
BURLEY         RAIN      49  45  86 SW9       29.91R FOG
JEROME         MOCLDY    51  45  79 W10       29.90R
TWIN FALLS     LGT RAIN  49  45  86 SW7       29.92R
$$

IDZ019>023-250400-
SOUTHEAST IDAHO


CITY           SKY/WX    TMP DP  RH WIND       PRES   REMARKS
IDAHO FALLS    LGT RAIN  47  43  86 S15       29.92S
POCATELLO      LGT RAIN  46  44  93 S8        29.94S
REXBURG        LGT RAIN  46  42  86 SE7       29.92S
$$

IDZ006-010-011-018-031-032-250400-
CENTRAL IDAHO MOUNTAINS


CITY           SKY/WX    TMP DP  RH WIND       PRES   REMARKS
MCCALL         LGT RAIN  45  39  79 NE6       29.86R
HAILEY         PTCLDY    45  43  93 CALM      29.92R
STANLEY          N/A     47  33  58 SW6       29.89R
SALMON         CLOUDY    53  43  68 S20G25    29.83R
CHALLIS        CLOUDY    51  39  63 VRB5      29.84R
$$

IDZ002-004-006-007-026-250400-
NORTHERN IDAHO


CITY           SKY/WX    TMP DP  RH WIND       PRES   REMARKS
LEWISTON       CLOUDY    58  49  72 S8        29.81S
LOWELL           N/A     53  52  96 CALM      29.85
COEUR D`ALENE  CLOUDY    54  51  90 NE5       29.83R
MULLAN PASS    LGT RAIN  39  37  92 CALM      29.87R VSB 1
$$



USA.gov is the U.S. government's official web portal to all federal, state and local government web resources and services.